Location: Amber Place
(27.9751°N, 82.3711°W)
Time: 12:00:46
(UTC+00:00)

Tiangong - Pass Details

Date: 05 October 2021
Orbit: 382 x 385 km, 41.5° (Epoch: 18 October)

Event Time Altitude Azimuth Distance (km) Brightness Sun altitude
Exits shadow 10:49:53 - 319° (NW) 1,929 4.2 -8.5°
Reaches altitude 10° 10:51:27 10° 333° (NNW) 1,393 3.6 -8.1°
Maximum altitude 10:53:53 20° 24° (NNE) 938 3.3 -7.6°
Drops below altitude 10° 10:56:19 10° 75° (ENE) 1,389 5.3 -7.1°
Sets 10:58:43 0° 93° (E) 2,239 7.8 -6.5°
